Regional Weather Roundup
Issued by NWS New Orleans/Baton Rouge, LA

Home | Current Version | Previous Version | Text Only | Print | Product List | Glossary On
Versions: 1 2 3 4 5 6 7 8 9 10 11 12 13 14 15 16 17 18 19 20 21 22 23 24 25 26 27 28 29 30 31 32 33 34 35 36 37 38 39 40 41 42 43 44 45 46 47 48 49 50
000
ASUS44 KLIX 050412
RWRLIX
NEW ORLEANS REGIONAL WEATHER ROUNDUP
NATIONAL WEATHER SERVICE NEW ORLEANS LA
1100 PM CDT TUE AUG 04 2015

NOTE: "FAIR" INDICATES FEW OR NO CLOUDS BELOW 12,000 FEET WITH NO
      SIGNIFICANT WEATHER AND/OR OBSTRUCTIONS TO VISIBILITY.
      SKY/WX - SKY CONDITION AND SIGNIFICANT WEATHER.
      TMP - AIR TEMPERATURE.     DP    - DEWPOINT TEMPERATURE.
      RH  - RELATIVE HUMIDITY.   PRES  - PRESSURE.
      HI  - HEAT INDEX.          WCI   - WIND CHILL INDEX.

*  THESE STATIONS ARE NOT NWS OR FAA STATIONS AND ARE NOT UNDER
   NWS QUALITY CONTROL.

LAZ038-040-048-061>063-065>067-069-050500-
SOUTHEAST LOUISIANA

CITY           SKY/WX    TMP DP  RH WIND       PRES   REMARKS
N.O. AUDUBON     N/A     79  76  91 MISG        N/A
N.O. INTL ARPT PTCLDY    81  72  74 W8        29.99R
N.O. LAKEFRONT MOCLDY    81  74  79 SW10      29.99R
N.O. DOWNTOWN*   N/A     81  73  78 S5        30.01R
RESERVE*         N/A     82  74  77 W3        29.99R
SLIDELL        PTCLDY    80  79  96 CALM      29.98S
BATON ROUGE    CLEAR     84  75  74 SE6       29.99R
BOOTHVILLE     PTCLDY    85  77  77 S12       30.02R HX  95
BELLE CHASSE   MOCLDY    78  75  90 CALM      30.00R
BOGALUSA*        N/A     78  74  86 CALM      30.01S
GALLIANO*      CLOUDY    82  78  87 CALM      30.00R
NEW ROADS*       N/A    N/A N/A N/A S7        29.99R
GONZALES*        N/A     80  73  80 CALM      29.98S
HAMMOND*       CLEAR     79  75  89 CALM      30.01R
HOUMA*         CLOUDY    78  76  94 SW3       30.00R
PORT FOURCHON* CLEAR     84  77  79 SW12      30.02R

$$

MSZ070-080>082-050500-
SOUTHERN MISSISSIPPI

CITY           SKY/WX    TMP DP  RH WIND       PRES   REMARKS
MCCOMB         CLEAR     79  75  87 SE3       30.01R
GULFPORT       CLOUDY    83  78  85 S7        29.99S
BILOXI         PTCLDY    85  76  75 S15       30.00S HX  95
PASCAGOULA     PTCLDY    83  75  77 S6        30.01S

$$

COASTAL OBSERVATIONS
LAKE AND NEARSHORE STATIONS

STATION/POSITION TIME  TEMP    WIND        PRES    WAVE
                       AIR SEA DIR/SP/G            HT/PER
                 (UTC) (F)     (DEG/KT/KT) (MB)    (FT/S)
PASCAGOULA       0300   86     200/ 13/ 17 1015.8
WAVELAND YACHT   0300   85 89  200/ 11/ 16 1015.7
GRAND ISLE       0300   85 88  220/ 11/ 16 1015.9
SOUTHWEST PASS   0300   85 86  200/  9/ 13 1016.6
NEW CANAL        0300   82 88  220/  8/ 11 1014.5
SHELL BEACH      0300   82 87  200/  7/ 10 1015.2

OFFSHORE STATIONS

STATION/POSITION TIME  TEMP    WIND        PRES    WAVE
                       AIR SEA DIR/SP/G            HT/PER
                 (UTC) (F)     (DEG/KT/KT) (MB)    (FT/S)
64 S DAUPHIN ISL 0350   84 86  210/ 14/ 16 1017.0    2/ 3

$$




USA.gov is the U.S. government's official web portal to all federal, state and local government web resources and services.